Regional Weather Roundup
Issued by NWS Green Bay, WI

Home | Current Version | Previous Version | Text Only | Print | Product List | Glossary On
Versions: 1 2 3 4 5 6 7 8 9 10 11 12 13 14 15 16 17 18 19 20 21 22 23 24 25 26 27 28 29 30 31 32 33 34 35 36 37 38 39 40 41 42 43 44 45 46 47 48 49 50
000
ASUS43 KGRB 291410
RWRGRB

NORTH-CENTRAL AND NORTHEAST WISCONSIN REGIONAL WEATHER ROUNDUP
NATIONAL WEATHER SERVICE GREEN BAY WI
900 AM CDT FRI AUG 29 2014

WIZ005-009-010>012-018-019-291500-
NORTH CENTRAL WISCONSIN

CITY           SKY/WX    TMP DP  RH WIND       PRES   REMARKS
IRONWOOD       NOT AVBL
MANITOWISH WTR DRIZZLE   58  58 100 SE8       29.88F
ARBOR VITAE    DRIZZLE   59  58  94 SE8       29.89F
EAGLE RIVER    LGT RAIN  59  59 100 SE7       29.90F
LAND O LAKES   RAIN      59  58  97 SE7       29.92F
RHINELANDER    CLOUDY    58  58 100 SE8       29.91F FOG
PHILLIPS       CLOUDY    59  58  97 SE7       29.89R
ANTIGO         FOG       58  58 100 SE9       29.93F VSB 1/2
TOMAHAWK       DRIZZLE   58  57  96 SE6       29.90F
MERRILL        CLOUDY    60  60 100 SE8       29.90F FOG
$$

WIZ013-073-291500-
NORTHEAST WISCONSIN

CITY           SKY/WX    TMP DP  RH WIND       PRES   REMARKS
IRON MOUNTAIN  CLOUDY    60  58  92 SE8       29.94F FOG
MARINETTE      CLOUDY    63  59  88 SE9       29.94F
OCONTO         CLOUDY    64  64 100 SE7       29.93F
$$

WIZ017-030-035>037-045-291500-
CENTRAL WISCONSIN

CITY           SKY/WX    TMP DP  RH WIND       PRES   REMARKS
MEDFORD        FOG       60  60 100 SE7       29.89F VSB 1/4
WAUSAU         CLOUDY    61  60  97 SE8       29.89F FOG
MOSINEE        FOG       61  61 100 SE8       29.91  VSB 1/4
MARSHFIELD     FOG       63  62  97 SE8       29.89F VSB 1/2
WISC RAPIDS    CLOUDY    65  63  93 SE7       29.91F FOG
STEVENS POINT  CLOUDY    61  60  97 SE7       29.91F FOG
WAUPACA        CLOUDY    66  65  96 E7        29.93F
SHAWANO        CLOUDY    65  63  92 S3        29.94F
CLINTONVILLE   CLOUDY    63  61  94 SE3       29.93S
$$

WIZ038-039-048-051-291500-
FOX VALLEY

CITY           SKY/WX    TMP DP  RH WIND       PRES   REMARKS
NWS GREEN BAY  RAIN      66  65  96 S6        29.95S FOG
APPLETON       CLOUDY    66  64  94 S7        29.95S
OSHKOSH        CLOUDY    70  67  90 S12       29.93F
FOND DU LAC    PTSUNNY   72  66  81 S12       29.94F
$$

WIZ022-050-052-291500-
EAST CENTRAL WISCONSIN

CITY           SKY/WX    TMP DP  RH WIND       PRES   REMARKS
STURGEON BAY   CLOUDY    63  61  94 SE10      29.96F
MANITOWOC      CLOUDY    69  67  93 S13       29.96F
SHEBOYGAN      PTSUNNY   72  67  84 S13       29.96S
$$

LMZ563-521-522-541>543-291500-
LAKESHORE

STATION/POSITION TIME  TEMP    WIND        PRES    VSBY  WAVE
                       AIR SEA DIR/SP/G                  HT/PER
                 (UTC) (F)     (DEG/KT/KT) (MB)    (MI)  (FT/S)
SHEBOYGAN LKSHOR 1400   68 69  170/ 13/ 14 1014.5F
KEWAUNEE LKSHORE 1400   66     170/ 12/ 14 1013.8S
NORTHPORT PIER   1400   63     140/ 15/ 18 1015.2S
N MID LAKE BUOY  1400   61 65  150/ 17/ 21 1015.2F         2/ 3
S GREEN BAY BUOY 1400   67     VRB 12/ 16  1014.8F
SISTER BAY LKSHO 1300   60     140/ 10/ 13   N/A
CHAMBERS ISLAND  1400   62     110/  5/ 10 1014.9F
MENOMINEE LKSHOR 1400   64     130/ 11/ 13 1014.8F
$$


USA.gov is the U.S. government's official web portal to all federal, state and local government web resources and services.